HA8LNU Weather Reports


time (UTC)temp
C
wind
direction
speed
KPH
gust
KPH
rain 1hr
cm
rain 24hr
cm
rain mn
cm
humidity
%
barometer
mb
20260906010546 13 0.0 1.6 0.00 0.05 0.00 81 1022.3
20260906005545 14 0.0 0.0 0.00 0.05 0.00 80 1022.2
20260906004603 15 0.0 0.0 0.00 0.05 0.00 79 1022.1
20260906003540 15 215 0.0 4.8 0.00 0.05 0.00 79 1022.2
20260906002538 15 291 1.6 4.8 0.00 0.05 0.00 79 1022.3
20260906001536 15 203 1.6 4.8 0.00 0.05 0.00 80 1022.3
20260906000533 15 0.0 0.0 0.00 0.05 0.00 81 1022.3
20260905235532 15 147 1.6 6.4 0.00 0.05 0.00 82 1022.2
20260905234550 15 153 1.6 4.8 0.00 0.05 0.00 83 1022.0
20260905233527 14 200 1.6 3.2 0.00 0.05 0.00 83 1022.2
20260905232525 14 218 1.6 4.8 0.00 0.05 0.00 84 1022.1
20260905231523 14 198 1.6 3.2 0.00 0.05 0.00 85 1022.0
20260905230541 14 135 0.0 3.2 0.00 0.05 0.00 85 1021.9
20260905225519 14 0.0 1.6 0.00 0.05 0.00 86 1021.9
20260905224516 14 0.0 1.6 0.00 0.05 0.00 87 1021.8
20260905223614 14 162 0.0 3.2 0.00 0.05 0.00 87 1021.9
20260905222612 14 219 1.6 6.4 0.00 0.05 0.00 86 1021.8
20260905221610 14 0.0 1.6 0.00 0.05 0.00 85 1021.7
20260905220608 14 0.0 0.0 0.00 0.05 0.00 85 1021.8
20260905215606 14 0.0 1.6 0.00 0.05 0.05 84 1021.7
20260905214604 15 180 0.0 3.2 0.00 0.05 0.05 84 1021.8
20260905213602 15 0.0 0.0 0.00 0.05 0.05 84 1021.5
20260905212700 15 0.0 1.6 0.00 0.05 0.05 83 1021.5
20260905211558 15 0.0 1.6 0.00 0.05 0.05 83 1021.5
20260905210555 15 0.0 1.6 0.00 0.05 0.05 82 1021.3
20260905205553 15 225 0.0 3.2 0.00 0.05 0.05 82 1021.2
20260905204551 15 225 0.0 3.2 0.00 0.05 0.05 82 1021.4
20260905203549 16 0.0 3.2 0.00 0.05 0.05 81 1021.2
20260905202547 16 180 0.0 3.2 0.03 0.05 0.05 81 1021.1
20260905201544 16 230 1.6 6.4 0.03 0.05 0.05 81 1021.2
20260905200542 16 0.0 1.6 0.03 0.05 0.05 81 1021.2
20260905195540 16 201 3.2 9.7 0.03 0.05 0.05 82 1021.1
20260905194538 16 225 0.0 3.2 0.03 0.05 0.05 83 1021.2
20260905193536 16 0.0 1.6 0.03 0.05 0.05 84 1020.9
20260905192534 16 0.0 3.2 0.00 0.03 0.03 83 1020.8
20260905191532 16 0.0 0.0 0.03 0.03 0.03 82 1020.5
20260905190529 16 0.0 1.6 0.03 0.03 0.03 81 1020.5
20260905185547 17 180 0.0 3.2 0.03 0.03 0.03 80 1020.4
20260905184525 17 0.0 1.6 0.03 0.03 0.03 72 1020.2
20260905183523 18 212 1.6 4.8 0.03 0.03 0.03 70 1020.3
20260905182521 20 125 1.6 6.4 0.03 0.03 0.03 62 1020.4
20260905181539 21 19 4.8 11.3 0.00 0.00 0.00 55 1020.2
20260905180516 21 0.0 1.6 0.00 0.00 0.00 52 1019.7
20260905175614 21 299 1.6 3.2 0.00 0.00 0.00 53 1019.7
20260905174732 21 242 0.0 4.8 0.00 0.00 0.00 54 1019.6
20260905173610 20 185 3.2 6.4 0.00 0.00 0.00 56 1019.3
20260905172608 20 262 3.2 6.4 0.00 0.00 0.00 56 1019.1
20260905171606 20 311 4.8 9.7 0.00 0.00 0.00 57 1019.1
20260905170604 20 348 4.8 11.3 0.00 0.00 0.00 59 1018.9
20260905165601 20 277 4.8 8.0 0.00 0.00 0.00 60 1018.7
20260905164620 20 321 6.4 12.9 0.00 0.00 0.00 60 1018.7
20260905163557 20 19 6.4 11.3 0.00 0.00 0.00 62 1018.9
20260905162555 20 321 8.0 17.7 0.00 0.00 0.00 62 1018.9
20260905161553 20 0 3.2 8.0 0.00 0.00 0.00 59 1019.0
20260905160551 21 270 6.4 12.9 0.00 0.00 0.00 51 1018.9
20260905155549 21 322 8.0 17.7 0.00 0.00 0.00 50 1018.6
20260905154606 21 304 9.7 22.5 0.00 0.00 0.00 50 1018.5
20260905153544 22 315 11.3 19.3 0.00 0.00 0.00 51 1018.6
20260905152542 22 354 11.3 22.5 0.00 0.00 0.00 50 1018.5
20260905151540 23 341 9.7 22.5 0.00 0.00 0.00 49 1018.2
20260905150538 24 320 12.9 19.3 0.00 0.00 0.00 45 1018.3
20260905145536 26 340 9.7 17.7 0.00 0.00 0.00 37 1018.2
20260905144533 27 3 11.3 20.9 0.00 0.00 0.00 33 1017.8
20260905143531 27 303 9.7 19.3 0.00 0.00 0.00 30 1017.9
20260905142609 28 309 11.3 24.1 0.00 0.00 0.00 28 1018.0
20260905141527 28 330 9.7 22.5 0.00 0.00 0.00 27 1018.0
20260905140525 28 315 12.9 14.5 0.00 0.00 0.00 27 1018.0
20260905135603 28 346 11.3 19.3 0.00 0.00 0.00 30 1018.0
20260905134521 28 22 8.0 14.5 0.00 0.00 0.00 34 1018.1
20260905133518 28 355 8.0 14.5 0.00 0.00 0.00 34 1017.9
20260905132516 27 37 8.0 16.1 0.00 0.00 0.00 34 1018.0
20260905131654 27 349 11.3 24.1 0.00 0.00 0.00 34 1018.1
20260905130632 27 332 9.7 17.7 0.00 0.00 0.00 33 1018.0
20260905125610 28 329 11.3 20.9 0.00 0.00 0.00 32 1018.0
20260905124608 28 351 9.7 17.7 0.00 0.00 0.00 33 1017.8
20260905123626 28 344 9.7 17.7 0.00 0.00 0.00 33 1017.7
20260905122603 29 0 14.5 19.3 0.00 0.00 0.00 32 1017.7
20260905121602 30 287 11.3 20.9 0.00 0.00 0.00 33 1017.6
20260905120559 30 293 16.1 22.5 0.00 0.00 0.00 35 1017.5
20260905115637 30 1 12.9 19.3 0.00 0.00 0.00 36 1017.7
20260905114555 30 324 17.7 27.4 0.00 0.00 0.00 35 1017.6
20260905113553 30 1 14.5 25.7 0.00 0.00 0.00 35 1017.5
20260905112551 30 329 16.1 27.4 0.00 0.00 0.00 35 1017.5
20260905111549 29 322 16.1 29.0 0.00 0.00 0.00 35 1017.5
20260905110606 30 341 16.1 30.6 0.00 0.00 0.00 35 1017.4
20260905105604 30 352 16.1 29.0 0.00 0.00 0.00 33 1017.3
20260905104542 32 332 14.5 32.2 0.00 0.00 0.00 29 1017.0
20260905103540 32 284 8.0 17.7 0.00 0.00 0.00 28 1017.0
20260905102538 33 323 12.9 17.7 0.00 0.00 0.00 26 1016.8
20260905101556 33 321 12.9 20.9 0.00 0.00 0.00 25 1016.9
20260905100533 33 0 9.7 14.5 0.00 0.00 0.00 26 1016.7
20260905095531 33 354 8.0 17.7 0.00 0.00 0.00 26 1016.7
20260905094529 33 332 6.4 9.7 0.00 0.00 0.00 26 1016.7
20260905093527 32 212 6.4 17.7 0.00 0.00 0.00 28 1016.7
20260905092525 31 308 4.8 9.7 0.00 0.00 0.00 31 1016.5
20260905091603 32 204 4.8 14.5 0.00 0.00 0.00 29 1016.6
20260905090520 32 271 8.0 17.7 0.00 0.00 0.00 31 1016.6
20260905085518 31 245 4.8 12.9 0.00 0.00 0.00 32 1016.4
20260905084537 32 245 8.0 14.5 0.00 0.00 0.00 31 1016.1
20260905083614 32 183 4.8 12.9 0.00 0.00 0.00 31 1016.2
20260905082612 31 238 4.8 11.3 0.00 0.00 0.00 32 1016.2
20260905081610 30 226 4.8 11.3 0.00 0.00 0.00 33 1016.2
20260905080608 28 270 3.2 6.4 0.00 0.00 0.00 34 1016.1
20260905075606 28 195 3.2 8.0 0.00 0.00 0.00 34 1016.0
20260905074604 29 214 6.4 17.7 0.00 0.00 0.00 32 1015.9
20260905073602 29 243 4.8 11.3 0.00 0.00 0.00 33 1016.2
20260905072559 28 248 3.2 6.4 0.00 0.00 0.00 34 1016.0
20260905071617 27 252 6.4 14.5 0.00 0.00 0.00 34 1016.0
20260905070555 27 172 4.8 8.0 0.00 0.00 0.00 40 1016.0
20260905065553 26 185 4.8 12.9 0.00 0.00 0.00 41 1016.0
20260905064551 25 208 4.8 9.7 0.00 0.00 0.00 43 1016.0
20260905063549 24 176 4.8 9.7 0.00 0.00 0.00 44 1016.0
20260905062546 23 233 4.8 12.9 0.00 0.00 0.00 47 1016.1
20260905061544 22 220 4.8 12.9 0.00 0.00 0.00 48 1016.2
20260905060542 22 135 4.8 6.4 0.00 0.00 0.00 52 1016.2
20260905055540 21 206 3.2 6.4 0.00 0.00 0.00 53 1016.4
20260905054538 21 168 3.2 6.4 0.00 0.00 0.00 54 1016.3
20260905053535 20 214 4.8 9.7 0.00 0.00 0.00 55 1016.3
20260905052533 20 216 3.2 8.0 0.00 0.00 0.00 57 1016.3
20260905051532 19 148 3.2 8.0 0.00 0.00 0.00 58 1016.2
20260905050529 19 164 3.2 6.4 0.00 0.00 0.00 59 1016.1
20260905045527 18 215 3.2 6.4 0.00 0.00 0.00 60 1016.2
20260905044525 18 178 3.2 6.4 0.00 0.00 0.00 61 1016.1
20260905043523 18 221 1.6 4.8 0.00 0.00 0.00 61 1016.2
20260905042540 17 201 1.6 4.8 0.00 0.00 0.00 61 1016.1
20260905041518 17 154 1.6 4.8 0.00 0.00 0.00 61 1016.0
20260905040516 17 225 1.6 3.2 0.00 0.00 0.00 61 1015.9
20260905035614 17 187 3.2 6.4 0.00 0.00 0.00 61 1015.7
20260905034612 17 168 1.6 4.8 0.00 0.00 0.00 61 1015.7
20260905033610 17 204 0.0 4.8 0.00 0.00 0.00 61 1015.8
20260905032608 17 223 1.6 4.8 0.00 0.00 0.00 61 1015.8
20260905031626 17 202 1.6 4.8 0.00 0.00 0.00 61 1015.8
20260905030603 17 173 1.6 6.4 0.00 0.00 0.00 61 1015.9
20260905025641 17 135 1.6 3.2 0.00 0.00 0.00 62 1015.8
20260905024559 17 208 1.6 4.8 0.00 0.00 0.00 62 1015.8
20260905023557 17 203 0.0 3.2 0.00 0.00 0.00 63 1015.9
20260905022555 17 114 0.0 3.2 0.00 0.00 0.00 62 1016.0
20260905021553 17 225 0.0 3.2 0.00 0.00 0.00 61 1015.9
20260905020551 17 0.0 1.6 0.00 0.00 0.00 61 1016.0
20260905015548 17 180 0.0 3.2 0.00 0.00 0.00 60 1015.9
20260905014606 17 196 1.6 4.8 0.00 0.00 0.00 60 1015.8
20260905013545 17 196 0.0 3.2 0.00 0.00 0.00 61 1015.9
20260905012542 17 225 1.6 3.2 0.00 0.00 0.00 61 1015.9
20260905011540 17 180 0.0 3.2 0.00 0.00 0.00 61 1015.9